owner,sensor,date,latitude,longitude,vertical_datum,direction_of_sea_water_velocity,sea_water_speed,upward_sea_water_velocity,qcFlag 
TABS,ioos:station:wmo:42045:1,2007-09-01T00:00:00Z,26.2168,-96.4998,2.0,343.6761285,18.28721138,-99999.0,'11111222,11111222,99999999' 
TABS,ioos:station:wmo:42045:1,2007-09-01T00:30:00Z,26.2168,-96.4998,2.0,356.8729285,18.14702455,-99999.0,'11111222,11111222,99999999' 
TABS,ioos:station:wmo:42045:1,2007-09-01T01:00:00Z,26.2168,-96.4998,2.0,349.5358276,15.41640684,-99999.0,'11111222,11111222,99999999' 
TABS,ioos:station:wmo:42045:1,2007-09-01T01:30:00Z,26.2168,-96.4998,2.0,353.7113737,19.71866121,-99999.0,'11111222,11111222,99999999' 
TABS,ioos:station:wmo:42045:1,2007-09-01T02:00:00Z,26.2168,-96.4998,2.0,350.3444537,17.52831994,-99999.0,'11111222,11111222,99999999' 
TABS,ioos:station:wmo:42045:1,2007-09-01T02:30:00Z,26.2168,-96.4998,2.0,356.419863,17.77469268,-99999.0,'11111222,11111222,99999999' 
TABS,ioos:station:wmo:42045:1,2007-09-01T03:00:00Z,26.2168,-96.4998,2.0,349.1698445,15.69964649,-99999.0,'11111222,11111222,99999999' 
TABS,ioos:station:wmo:42045:1,2007-09-01T03:30:00Z,26.2168,-96.4998,2.0,355.4279406,13.92431327,-99999.0,'11111222,11111222,99999999' 
TABS,ioos:station:wmo:42045:1,2007-09-01T04:00:00Z,26.2168,-96.4998,2.0,344.2755015,12.84056074,-99999.0,'11111222,11111222,99999999' 
TABS,ioos:station:wmo:42045:1,2007-09-01T04:30:00Z,26.2168,-96.4998,2.0,344.7958166,11.89641963,-99999.0,'11111222,11111222,99999999' 
TABS,ioos:station:wmo:42045:1,2007-09-01T05:00:00Z,26.2168,-96.4998,2.0,337.1816492,11.08775902,-99999.0,'11111222,11111222,99999999' 
TABS,ioos:station:wmo:42045:1,2007-09-01T05:30:00Z,26.2168,-96.4998,2.0,337.6885329,12.30094712,-99999.0,'11111222,11111222,99999999' 
TABS,ioos:station:wmo:42045:1,2007-09-01T06:00:00Z,26.2168,-96.4998,2.0,338.3846047,11.45560561,-99999.0,'11111222,11111222,99999999' 
TABS,ioos:station:wmo:42045:1,2007-09-01T06:30:00Z,26.2168,-96.4998,2.0,342.8127515,9.441636511,-99999.0,'11133222,11111222,99999999' 
TABS,ioos:station:wmo:42045:1,2007-09-01T07:00:00Z,26.2168,-96.4998,2.0,351.3525294,10.1756818,-99999.0,'11111222,11111222,99999999' 
TABS,ioos:station:wmo:42045:1,2007-09-01T07:30:00Z,26.2168,-96.4998,2.0,347.3780231,8.649028847,-99999.0,'11133222,11111222,99999999' 
TABS,ioos:station:wmo:42045:1,2007-09-01T08:00:00Z,26.2168,-96.4998,2.0,345.4438202,9.350133689,-99999.0,'11133222,11111222,99999999' 
TABS,ioos:station:wmo:42045:1,2007-09-01T08:30:00Z,26.2168,-96.4998,2.0,332.768128,9.986956493,-99999.0,'11133222,11111222,99999999' 
TABS,ioos:station:wmo:42045:1,2007-09-01T09:00:00Z,26.2168,-96.4998,2.0,339.9550079,9.452618685,-99999.0,'11133222,11111222,99999999' 
TABS,ioos:station:wmo:42045:1,2007-09-01T09:30:00Z,26.2168,-96.4998,2.0,341.1722019,11.06190761,-99999.0,'11111222,11111222,99999999' 
TABS,ioos:station:wmo:42045:1,2007-09-01T10:00:00Z,26.2168,-96.4998,2.0,339.3767273,14.90520043,-99999.0,'11111222,11111222,99999999' 
TABS,ioos:station:wmo:42045:1,2007-09-01T10:30:00Z,26.2168,-96.4998,2.0,334.8579322,12.96872006,-99999.0,'11111222,11111222,99999999' 
TABS,ioos:station:wmo:42045:1,2007-09-01T11:00:00Z,26.2168,-96.4998,2.0,340.7999504,9.943088052,-99999.0,'11133222,11111222,99999999' 
TABS,ioos:station:wmo:42045:1,2007-09-01T11:30:00Z,26.2168,-96.4998,2.0,347.2223622,6.736839021,-99999.0,'11133222,11111222,99999999' 
TABS,ioos:station:wmo:42045:1,2007-09-01T12:00:00Z,26.2168,-96.4998,2.0,349.9490251,7.677838237,-99999.0,'11133222,11111222,99999999' 
TABS,ioos:station:wmo:42045:1,2007-09-01T12:30:00Z,26.2168,-96.4998,2.0,1.399394861,6.96207584,-99999.0,'11133222,11111222,99999999' 
TABS,ioos:station:wmo:42045:1,2007-09-01T13:00:00Z,26.2168,-96.4998,2.0,333.7835189,5.885439661,-99999.0,'11133222,11111222,99999999' 
TABS,ioos:station:wmo:42045:1,2007-09-01T13:30:00Z,26.2168,-96.4998,2.0,341.767762,5.369580989,-99999.0,'11133222,11111222,99999999' 
TABS,ioos:station:wmo:42045:1,2007-09-01T14:00:00Z,26.2168,-96.4998,2.0,313.7504272,3.890012853,-99999.0,'11133222,11111222,99999999' 
TABS,ioos:station:wmo:42045:1,2007-09-01T14:30:00Z,26.2168,-96.4998,2.0,296.3261811,6.426515385,-99999.0,'11133222,11111222,99999999' 
TABS,ioos:station:wmo:42045:1,2007-09-01T15:00:00Z,26.2168,-96.4998,2.0,282.897655,5.734675231,-99999.0,'11133222,11111222,99999999' 
TABS,ioos:station:wmo:42045:1,2007-09-01T15:30:00Z,26.2168,-96.4998,2.0,269.6605556,5.070088757,-99999.0,'11133222,11111222,99999999' 
TABS,ioos:station:wmo:42045:1,2007-09-01T16:00:00Z,26.2168,-96.4998,2.0,281.5649726,5.736453608,-99999.0,'11133222,11111222,99999999' 
TABS,ioos:station:wmo:42045:1,2007-09-01T16:30:00Z,26.2168,-96.4998,2.0,272.5641851,8.048055666,-99999.0,'11133222,11111222,99999999' 
TABS,ioos:station:wmo:42045:1,2007-09-01T17:00:00Z,26.2168,-96.4998,2.0,247.010916,10.39560003,-99999.0,'11111222,11111222,99999999' 
TABS,ioos:station:wmo:42045:1,2007-09-01T17:30:00Z,26.2168,-96.4998,2.0,253.9602214,12.55889326,-99999.0,'11111222,11111222,99999999' 
TABS,ioos:station:wmo:42045:1,2007-09-01T18:00:00Z,26.2168,-96.4998,2.0,259.8870233,13.32704018,-99999.0,'11111222,11111222,99999999' 
TABS,ioos:station:wmo:42045:1,2007-09-01T18:30:00Z,26.2168,-96.4998,2.0,276.871685,15.96466724,-99999.0,'11111222,11111222,99999999' 
TABS,ioos:station:wmo:42045:1,2007-09-01T19:00:00Z,26.2168,-96.4998,2.0,288.0826219,9.246675078,-99999.0,'11133222,11111222,99999999' 
TABS,ioos:station:wmo:42045:1,2007-09-01T19:30:00Z,26.2168,-96.4998,2.0,297.8762007,12.51183839,-99999.0,'11111222,11111222,99999999' 
TABS,ioos:station:wmo:42045:1,2007-09-01T20:00:00Z,26.2168,-96.4998,2.0,294.8577678,14.10690965,-99999.0,'11111222,11111222,99999999' 
TABS,ioos:station:wmo:42045:1,2007-09-01T20:30:00Z,26.2168,-96.4998,2.0,306.8549759,15.02200053,-99999.0,'11111222,11111222,99999999' 
TABS,ioos:station:wmo:42045:1,2007-09-01T21:00:00Z,26.2168,-96.4998,2.0,325.1691284,12.25575783,-99999.0,'11111222,11111222,99999999' 
TABS,ioos:station:wmo:42045:1,2007-09-01T21:30:00Z,26.2168,-96.4998,2.0,333.8300172,15.57681932,-99999.0,'11111222,11111222,99999999' 
TABS,ioos:station:wmo:42045:1,2007-09-01T22:00:00Z,26.2168,-96.4998,2.0,335.1618281,17.06894842,-99999.0,'11111222,11111222,99999999' 
TABS,ioos:station:wmo:42045:1,2007-09-01T22:30:00Z,26.2168,-96.4998,2.0,339.2367947,16.81190055,-99999.0,'11111222,11111222,99999999' 
TABS,ioos:station:wmo:42045:1,2007-09-01T23:00:00Z,26.2168,-96.4998,2.0,340.3117485,17.77941788,-99999.0,'11111222,11111222,99999999' 
TABS,ioos:station:wmo:42045:1,2007-09-01T23:30:00Z,26.2168,-96.4998,2.0,344.6038637,19.20938312,-99999.0,'11111222,11111222,99999999' 
TABS,ioos:station:wmo:42045:1,2007-09-02T00:00:00Z,26.2168,-96.4998,2.0,338.759615,21.06071699,-99999.0,'11111222,11111222,99999999' 
TABS,ioos:station:wmo:42045:1,2007-09-02T00:30:00Z,26.2168,-96.4998,2.0,342.9026462,24.65983374,-99999.0,'11111222,11111222,99999999' 
TABS,ioos:station:wmo:42045:1,2007-09-02T01:00:00Z,26.2168,-96.4998,2.0,348.4849446,21.33953373,-99999.0,'11111222,11111222,99999999' 
TABS,ioos:station:wmo:42045:1,2007-09-02T01:30:00Z,26.2168,-96.4998,2.0,352.4690388,23.27074129,-99999.0,'11111222,11111222,99999999' 
TABS,ioos:station:wmo:42045:1,2007-09-02T02:00:00Z,26.2168,-96.4998,2.0,356.3369636,24.25956718,-99999.0,'11111222,11111222,99999999' 
TABS,ioos:station:wmo:42045:1,2007-09-02T02:30:00Z,26.2168,-96.4998,2.0,356.9619848,26.03659732,-99999.0,'11111222,11111222,99999999' 
TABS,ioos:station:wmo:42045:1,2007-09-02T03:00:00Z,26.2168,-96.4998,2.0,0.331806193,24.19040512,-99999.0,'11111222,11111222,99999999' 
TABS,ioos:station:wmo:42045:1,2007-09-02T03:30:00Z,26.2168,-96.4998,2.0,356.5045939,26.56943357,-99999.0,'11111222,11111222,99999999' 
TABS,ioos:station:wmo:42045:1,2007-09-02T04:00:00Z,26.2168,-96.4998,2.0,353.4133085,26.41436162,-99999.0,'11111222,11111222,99999999' 
TABS,ioos:station:wmo:42045:1,2007-09-02T04:30:00Z,26.2168,-96.4998,2.0,359.0439228,26.36367197,-99999.0,'11111222,11144222,99999999' 
TABS,ioos:station:wmo:42045:1,2007-09-02T05:00:00Z,26.2168,-96.4998,2.0,6.340387378,23.45344751,-99999.0,'11111222,11111222,99999999' 
TABS,ioos:station:wmo:42045:1,2007-09-02T05:30:00Z,26.2168,-96.4998,2.0,3.33528639,22.51813713,-99999.0,'11111222,11111222,99999999' 
TABS,ioos:station:wmo:42045:1,2007-09-02T06:00:00Z,26.2168,-96.4998,2.0,8.928597192,22.22935222,-99999.0,'11111222,11111222,99999999' 
TABS,ioos:station:wmo:42045:1,2007-09-02T06:30:00Z,26.2168,-96.4998,2.0,12.16521188,22.20870325,-99999.0,'11111222,11111222,99999999' 
TABS,ioos:station:wmo:42045:1,2007-09-02T07:00:00Z,26.2168,-96.4998,2.0,22.4066589,21.27630137,-99999.0,'11111222,11111222,99999999' 
TABS,ioos:station:wmo:42045:1,2007-09-02T07:30:00Z,26.2168,-96.4998,2.0,15.93131022,22.07796413,-99999.0,'11111222,11111222,99999999' 
TABS,ioos:station:wmo:42045:1,2007-09-02T08:00:00Z,26.2168,-96.4998,2.0,20.59249364,24.0250411,-99999.0,'11111222,11111222,99999999' 
TABS,ioos:station:wmo:42045:1,2007-09-02T08:30:00Z,26.2168,-96.4998,2.0,24.00934512,23.66772697,-99999.0,'11111222,11111222,99999999' 
TABS,ioos:station:wmo:42045:1,2007-09-02T09:00:00Z,26.2168,-96.4998,2.0,24.77013427,23.27099912,-99999.0,'11111222,11111222,99999999' 
TABS,ioos:station:wmo:42045:1,2007-09-02T09:30:00Z,26.2168,-96.4998,2.0,24.352237,23.74238825,-99999.0,'11111222,11111222,99999999' 
TABS,ioos:station:wmo:42045:1,2007-09-02T10:00:00Z,26.2168,-96.4998,2.0,30.06453254,24.91152344,-99999.0,'11111222,11111222,99999999' 
TABS,ioos:station:wmo:42045:1,2007-09-02T10:30:00Z,26.2168,-96.4998,2.0,34.25615446,21.62049491,-99999.0,'11111222,11111222,99999999' 
TABS,ioos:station:wmo:42045:1,2007-09-02T11:00:00Z,26.2168,-96.4998,2.0,42.53482324,24.6584225,-99999.0,'11111222,11111222,99999999' 
TABS,ioos:station:wmo:42045:1,2007-09-02T11:30:00Z,26.2168,-96.4998,2.0,49.30456412,21.10302348,-99999.0,'11111222,11111222,99999999' 
TABS,ioos:station:wmo:42045:1,2007-09-02T12:00:00Z,26.2168,-96.4998,2.0,46.76868431,23.14048617,-99999.0,'11111222,11111222,99999999' 
TABS,ioos:station:wmo:42045:1,2007-09-02T12:30:00Z,26.2168,-96.4998,2.0,39.96327552,23.27591244,-99999.0,'11111222,11111222,99999999' 
TABS,ioos:station:wmo:42045:1,2007-09-02T13:00:00Z,26.2168,-96.4998,2.0,36.95242209,20.86002157,-99999.0,'11111222,11111222,99999999' 
TABS,ioos:station:wmo:42045:1,2007-09-02T13:30:00Z,26.2168,-96.4998,2.0,34.92620246,19.92946813,-99999.0,'11111222,11111222,99999999' 
TABS,ioos:station:wmo:42045:1,2007-09-02T14:00:00Z,26.2168,-96.4998,2.0,31.37380588,17.97865679,-99999.0,'11111222,11111222,99999999' 
TABS,ioos:station:wmo:42045:1,2007-09-02T14:30:00Z,26.2168,-96.4998,2.0,26.71057863,15.8627173,-99999.0,'11111222,11111222,99999999' 
TABS,ioos:station:wmo:42045:1,2007-09-02T15:00:00Z,26.2168,-96.4998,2.0,15.37807182,16.78078961,-99999.0,'11111222,11111222,99999999' 
TABS,ioos:station:wmo:42045:1,2007-09-02T15:30:00Z,26.2168,-96.4998,2.0,18.74150708,15.9665682,-99999.0,'11111222,11111222,99999999' 
TABS,ioos:station:wmo:42045:1,2007-09-02T16:00:00Z,26.2168,-96.4998,2.0,20.62580572,16.37992063,-99999.0,'11111222,11111222,99999999' 
TABS,ioos:station:wmo:42045:1,2007-09-02T16:30:00Z,26.2168,-96.4998,2.0,11.65425233,15.34636439,-99999.0,'11111222,11111222,99999999' 
TABS,ioos:station:wmo:42045:1,2007-09-02T17:00:00Z,26.2168,-96.4998,2.0,7.684940352,17.64850419,-99999.0,'11111222,11111222,99999999' 
TABS,ioos:station:wmo:42045:1,2007-09-02T17:30:00Z,26.2168,-96.4998,2.0,5.158977128,17.46072736,-99999.0,'11111222,11111222,99999999' 
TABS,ioos:station:wmo:42045:1,2007-09-02T18:00:00Z,26.2168,-96.4998,2.0,5.663115394,17.93754164,-99999.0,'11111222,11111222,99999999' 
TABS,ioos:station:wmo:42045:1,2007-09-02T18:30:00Z,26.2168,-96.4998,2.0,7.921778422,17.4868665,-99999.0,'11111222,11111222,99999999' 
TABS,ioos:station:wmo:42045:1,2007-09-02T19:00:00Z,26.2168,-96.4998,2.0,358.7293551,17.58432541,-99999.0,'11111222,11111222,99999999' 
TABS,ioos:station:wmo:42045:1,2007-09-02T19:30:00Z,26.2168,-96.4998,2.0,2.645423117,16.46754687,-99999.0,'11111222,11111222,99999999' 
TABS,ioos:station:wmo:42045:1,2007-09-02T20:00:00Z,26.2168,-96.4998,2.0,359.6232709,16.72036184,-99999.0,'11111222,11144222,99999999' 
TABS,ioos:station:wmo:42045:1,2007-09-02T20:30:00Z,26.2168,-96.4998,2.0,359.7837292,15.88011335,-99999.0,'11111222,11144222,99999999' 
TABS,ioos:station:wmo:42045:1,2007-09-02T21:00:00Z,26.2168,-96.4998,2.0,351.2925387,15.85272532,-99999.0,'11111222,11111222,99999999' 
TABS,ioos:station:wmo:42045:1,2007-09-02T21:30:00Z,26.2168,-96.4998,2.0,347.5449875,15.20792228,-99999.0,'11111222,11111222,99999999' 
TABS,ioos:station:wmo:42045:1,2007-09-02T22:00:00Z,26.2168,-96.4998,2.0,348.5126992,15.81684229,-99999.0,'11111222,11111222,99999999' 
TABS,ioos:station:wmo:42045:1,2007-09-02T22:30:00Z,26.2168,-96.4998,2.0,350.3634261,14.5756818,-99999.0,'11111222,11111222,99999999' 
TABS,ioos:station:wmo:42045:1,2007-09-02T23:00:00Z,26.2168,-96.4998,2.0,346.0540306,15.43498623,-99999.0,'11111222,11111222,99999999' 
TABS,ioos:station:wmo:42045:1,2007-09-02T23:30:00Z,26.2168,-96.4998,2.0,341.7897968,14.52761508,-99999.0,'11111222,11111222,99999999' 
TABS,ioos:station:wmo:42045:1,2007-09-03T00:00:00Z,26.2168,-96.4998,2.0,337.9026285,15.44448769,-99999.0,'11111222,11111222,99999999' 
TABS,ioos:station:wmo:42045:1,2007-09-03T00:30:00Z,26.2168,-96.4998,2.0,340.6068095,15.69025494,-99999.0,'11111222,11111222,99999999' 
TABS,ioos:station:wmo:42045:1,2007-09-03T01:00:00Z,26.2168,-96.4998,2.0,348.3209851,13.3871655,-99999.0,'11111222,11111222,99999999' 
TABS,ioos:station:wmo:42045:1,2007-09-03T01:30:00Z,26.2168,-96.4998,2.0,348.1115802,16.50401466,-99999.0,'11111222,11111222,99999999' 
TABS,ioos:station:wmo:42045:1,2007-09-03T02:00:00Z,26.2168,-96.4998,2.0,346.1846141,15.11735757,-99999.0,'11111222,11111222,99999999' 
TABS,ioos:station:wmo:42045:1,2007-09-03T02:30:00Z,26.2168,-96.4998,2.0,348.6531477,12.09644576,-99999.0,'11111222,11111222,99999999' 
TABS,ioos:station:wmo:42045:1,2007-09-03T03:00:00Z,26.2168,-96.4998,2.0,349.59471,15.77950886,-99999.0,'11111222,11111222,99999999' 
TABS,ioos:station:wmo:42045:1,2007-09-03T03:30:00Z,26.2168,-96.4998,2.0,344.2090563,13.78006168,-99999.0,'11111222,11111222,99999999' 
TABS,ioos:station:wmo:42045:1,2007-09-03T04:00:00Z,26.2168,-96.4998,2.0,344.7520289,14.56267146,-99999.0,'11111222,11111222,99999999' 
TABS,ioos:station:wmo:42045:1,2007-09-03T04:30:00Z,26.2168,-96.4998,2.0,342.0658506,14.8411354,-99999.0,'11111222,11111222,99999999' 
TABS,ioos:station:wmo:42045:1,2007-09-03T05:00:00Z,26.2168,-96.4998,2.0,332.7757323,15.54170197,-99999.0,'11111222,11111222,99999999' 
TABS,ioos:station:wmo:42045:1,2007-09-03T05:30:00Z,26.2168,-96.4998,2.0,332.2568634,15.87496772,-99999.0,'11111222,11111222,99999999' 
TABS,ioos:station:wmo:42045:1,2007-09-03T06:00:00Z,26.2168,-96.4998,2.0,331.7990848,16.75945405,-99999.0,'11111222,11111222,99999999' 
TABS,ioos:station:wmo:42045:1,2007-09-03T06:30:00Z,26.2168,-96.4998,2.0,332.8097797,17.61679312,-99999.0,'11111222,11111222,99999999' 
TABS,ioos:station:wmo:42045:1,2007-09-03T07:00:00Z,26.2168,-96.4998,2.0,329.0478072,17.42082662,-99999.0,'11111222,11111222,99999999' 
TABS,ioos:station:wmo:42045:1,2007-09-03T07:30:00Z,26.2168,-96.4998,2.0,328.6393358,15.83312982,-99999.0,'11111222,11111222,99999999' 
TABS,ioos:station:wmo:42045:1,2007-09-03T08:00:00Z,26.2168,-96.4998,2.0,336.8685761,19.11691659,-99999.0,'11111222,11111222,99999999' 
TABS,ioos:station:wmo:42045:1,2007-09-03T08:30:00Z,26.2168,-96.4998,2.0,332.5964365,20.16254944,-99999.0,'11111222,11111222,99999999' 
TABS,ioos:station:wmo:42045:1,2007-09-03T09:00:00Z,26.2168,-96.4998,2.0,343.364624,19.8404259,-99999.0,'11111222,11111222,99999999' 
TABS,ioos:station:wmo:42045:1,2007-09-03T09:30:00Z,26.2168,-96.4998,2.0,343.4981365,18.09536128,-99999.0,'11111222,11111222,99999999' 
TABS,ioos:station:wmo:42045:1,2007-09-03T10:00:00Z,26.2168,-96.4998,2.0,342.8677027,18.36492853,-99999.0,'11111222,11111222,99999999' 
TABS,ioos:station:wmo:42045:1,2007-09-03T10:30:00Z,26.2168,-96.4998,2.0,345.0932693,19.63067498,-99999.0,'11111222,11111222,99999999' 
TABS,ioos:station:wmo:42045:1,2007-09-03T11:00:00Z,26.2168,-96.4998,2.0,351.1020671,19.20108851,-99999.0,'11111222,11111222,99999999' 
TABS,ioos:station:wmo:42045:1,2007-09-03T11:30:00Z,26.2168,-96.4998,2.0,351.8492392,15.51675224,-99999.0,'11111222,11111222,99999999' 
TABS,ioos:station:wmo:42045:1,2007-09-03T12:00:00Z,26.2168,-96.4998,2.0,354.5839703,19.17561472,-99999.0,'11111222,11111222,99999999' 
TABS,ioos:station:wmo:42045:1,2007-09-03T12:30:00Z,26.2168,-96.4998,2.0,1.59768292,20.08780725,-99999.0,'11111222,11111222,99999999' 
TABS,ioos:station:wmo:42045:1,2007-09-03T13:00:00Z,26.2168,-96.4998,2.0,2.107126822,17.95213636,-99999.0,'11111222,11111222,99999999' 
TABS,ioos:station:wmo:42045:1,2007-09-03T13:30:00Z,26.2168,-96.4998,2.0,1.473502995,16.33540021,-99999.0,'11111222,11111222,99999999' 
TABS,ioos:station:wmo:42045:1,2007-09-03T14:00:00Z,26.2168,-96.4998,2.0,24.64299362,20.26570749,-99999.0,'11111222,11111222,99999999' 
TABS,ioos:station:wmo:42045:1,2007-09-03T14:30:00Z,26.2168,-96.4998,2.0,15.92319452,28.13968728,-99999.0,'11111222,11111222,99999999' 
TABS,ioos:station:wmo:42045:1,2007-09-03T15:00:00Z,26.2168,-96.4998,2.0,17.38435692,23.7969788,-99999.0,'11111222,11111222,99999999' 
TABS,ioos:station:wmo:42045:1,2007-09-03T15:30:00Z,26.2168,-96.4998,2.0,8.497730984,25.58082094,-99999.0,'11111222,11111222,99999999' 
TABS,ioos:station:wmo:42045:1,2007-09-03T16:00:00Z,26.2168,-96.4998,2.0,8.958798965,23.37515134,-99999.0,'11111222,11111222,99999999' 
TABS,ioos:station:wmo:42045:1,2007-09-03T16:30:00Z,26.2168,-96.4998,2.0,6.98303762,19.49459925,-99999.0,'11111222,11111222,99999999' 
TABS,ioos:station:wmo:42045:1,2007-09-03T17:00:00Z,26.2168,-96.4998,2.0,0.695218482,18.96139499,-99999.0,'11111222,11111222,99999999' 
TABS,ioos:station:wmo:42045:1,2007-09-03T17:30:00Z,26.2168,-96.4998,2.0,354.4938168,14.79828706,-99999.0,'11111222,11111222,99999999' 
TABS,ioos:station:wmo:42045:1,2007-09-03T18:00:00Z,26.2168,-96.4998,2.0,352.7349461,13.67983187,-99999.0,'11111222,11111222,99999999' 
TABS,ioos:station:wmo:42045:1,2007-09-03T18:30:00Z,26.2168,-96.4998,2.0,343.551182,11.40686197,-99999.0,'11111222,11111222,99999999' 
TABS,ioos:station:wmo:42045:1,2007-09-03T19:00:00Z,26.2168,-96.4998,2.0,319.8018778,10.64395603,-99999.0,'11111222,11111222,99999999' 
TABS,ioos:station:wmo:42045:1,2007-09-03T19:30:00Z,26.2168,-96.4998,2.0,303.9485691,9.848801958,-99999.0,'11133222,11111222,99999999' 
TABS,ioos:station:wmo:42045:1,2007-09-03T20:00:00Z,26.2168,-96.4998,2.0,296.2551148,14.03824063,-99999.0,'11111222,11111222,99999999' 
TABS,ioos:station:wmo:42045:1,2007-09-03T20:30:00Z,26.2168,-96.4998,2.0,300.6792434,15.52252879,-99999.0,'11111222,11111222,99999999' 
TABS,ioos:station:wmo:42045:1,2007-09-03T21:00:00Z,26.2168,-96.4998,2.0,292.055555,14.67378956,-99999.0,'11111222,11111222,99999999' 
TABS,ioos:station:wmo:42045:1,2007-09-03T21:30:00Z,26.2168,-96.4998,2.0,282.7269533,16.34146872,-99999.0,'11111222,11111222,99999999' 
TABS,ioos:station:wmo:42045:1,2007-09-03T22:00:00Z,26.2168,-96.4998,2.0,284.6606189,17.14828563,-99999.0,'11111222,11111222,99999999' 
TABS,ioos:station:wmo:42045:1,2007-09-03T22:30:00Z,26.2168,-96.4998,2.0,281.8968499,15.13507516,-99999.0,'11111222,11111222,99999999' 
TABS,ioos:station:wmo:42045:1,2007-09-03T23:00:00Z,26.2168,-96.4998,2.0,281.0124085,16.5955717,-99999.0,'11111222,11111222,99999999' 
TABS,ioos:station:wmo:42045:1,2007-09-03T23:30:00Z,26.2168,-96.4998,2.0,275.8001607,16.6251015,-99999.0,'11111222,11111222,99999999' 
TABS,ioos:station:wmo:42045:1,2007-09-04T00:00:00Z,26.2168,-96.4998,2.0,274.644492,17.90879672,-99999.0,'11111222,11111222,99999999' 
TABS,ioos:station:wmo:42045:1,2007-09-04T00:30:00Z,26.2168,-96.4998,2.0,279.4952859,20.24738255,-99999.0,'11111222,11111222,99999999' 
TABS,ioos:station:wmo:42045:1,2007-09-04T01:00:00Z,26.2168,-96.4998,2.0,281.2587955,15.26372497,-99999.0,'11111222,11111222,99999999' 
TABS,ioos:station:wmo:42045:1,2007-09-04T01:30:00Z,26.2168,-96.4998,2.0,278.6766559,21.80957817,-99999.0,'11111222,11111222,99999999' 
TABS,ioos:station:wmo:42045:1,2007-09-04T02:00:00Z,26.2168,-96.4998,2.0,278.0732516,22.64439887,-99999.0,'11111222,11111222,99999999' 
TABS,ioos:station:wmo:42045:1,2007-09-04T02:30:00Z,26.2168,-96.4998,2.0,280.0506557,23.55139486,-99999.0,'11111222,11111222,99999999' 
TABS,ioos:station:wmo:42045:1,2007-09-04T03:00:00Z,26.2168,-96.4998,2.0,281.611553,23.50092126,-99999.0,'11111222,11111222,99999999' 
TABS,ioos:station:wmo:42045:1,2007-09-04T03:30:00Z,26.2168,-96.4998,2.0,283.1526745,23.42445304,-99999.0,'11111222,11111222,99999999' 
TABS,ioos:station:wmo:42045:1,2007-09-04T04:00:00Z,26.2168,-96.4998,2.0,278.7222267,25.05978651,-99999.0,'11111222,11111222,99999999' 
TABS,ioos:station:wmo:42045:1,2007-09-04T04:30:00Z,26.2168,-96.4998,2.0,278.7449514,27.0342468,-99999.0,'11111222,11111222,99999999' 
TABS,ioos:station:wmo:42045:1,2007-09-04T05:00:00Z,26.2168,-96.4998,2.0,274.3124259,26.86604735,-99999.0,'11111222,11111222,99999999' 
TABS,ioos:station:wmo:42045:1,2007-09-04T05:30:00Z,26.2168,-96.4998,2.0,280.1794086,28.91511197,-99999.0,'11111222,11111222,99999999' 
TABS,ioos:station:wmo:42045:1,2007-09-04T06:00:00Z,26.2168,-96.4998,2.0,283.8260923,29.04141181,-99999.0,'11111222,11111222,99999999' 
TABS,ioos:station:wmo:42045:1,2007-09-04T06:30:00Z,26.2168,-96.4998,2.0,286.0908171,27.67412149,-99999.0,'11111222,11111222,99999999' 
TABS,ioos:station:wmo:42045:1,2007-09-04T07:00:00Z,26.2168,-96.4998,2.0,291.2822008,30.30672533,-99999.0,'11111222,11111222,99999999' 
TABS,ioos:station:wmo:42045:1,2007-09-04T07:30:00Z,26.2168,-96.4998,2.0,294.8707669,30.24486733,-99999.0,'11111222,11111222,99999999' 
TABS,ioos:station:wmo:42045:1,2007-09-04T08:00:00Z,26.2168,-96.4998,2.0,296.5738259,30.44630191,-99999.0,'11111222,11111222,99999999' 
TABS,ioos:station:wmo:42045:1,2007-09-04T08:30:00Z,26.2168,-96.4998,2.0,300.9030584,28.97298742,-99999.0,'11111222,11111222,99999999' 
TABS,ioos:station:wmo:42045:1,2007-09-04T09:00:00Z,26.2168,-96.4998,2.0,304.2817428,31.44208167,-99999.0,'11111222,11111222,99999999' 
TABS,ioos:station:wmo:42045:1,2007-09-04T09:30:00Z,26.2168,-96.4998,2.0,311.5418956,30.00769235,-99999.0,'11111222,11111222,99999999' 
TABS,ioos:station:wmo:42045:1,2007-09-04T10:00:00Z,26.2168,-96.4998,2.0,311.9190255,31.70300459,-99999.0,'11111222,11111222,99999999' 
TABS,ioos:station:wmo:42045:1,2007-09-04T10:30:00Z,26.2168,-96.4998,2.0,315.194373,33.40391594,-99999.0,'11111222,11111222,99999999' 
TABS,ioos:station:wmo:42045:1,2007-09-04T11:00:00Z,26.2168,-96.4998,2.0,310.4921683,34.63518009,-99999.0,'11111222,11111222,99999999' 
TABS,ioos:station:wmo:42045:1,2007-09-04T11:30:00Z,26.2168,-96.4998,2.0,310.4919327,32.29449644,-99999.0,'11111222,11111222,99999999' 
TABS,ioos:station:wmo:42045:1,2007-09-04T12:00:00Z,26.2168,-96.4998,2.0,321.471152,32.18749602,-99999.0,'11111222,11111222,99999999' 
TABS,ioos:station:wmo:42045:1,2007-09-04T12:30:00Z,26.2168,-96.4998,2.0,325.6938175,29.6476677,-99999.0,'11111222,11111222,99999999' 
TABS,ioos:station:wmo:42045:1,2007-09-04T13:00:00Z,26.2168,-96.4998,2.0,330.5187508,30.76341984,-99999.0,'11111222,11111222,99999999' 
TABS,ioos:station:wmo:42045:1,2007-09-04T13:30:00Z,26.2168,-96.4998,2.0,324.9226109,27.94567051,-99999.0,'11111222,11111222,99999999' 
TABS,ioos:station:wmo:42045:1,2007-09-04T14:00:00Z,26.2168,-96.4998,2.0,325.4392889,27.55236832,-99999.0,'11111222,11111222,99999999' 
TABS,ioos:station:wmo:42045:1,2007-09-04T14:30:00Z,26.2168,-96.4998,2.0,327.1647857,26.77835693,-99999.0,'11111222,11111222,99999999' 
TABS,ioos:station:wmo:42045:1,2007-09-04T15:00:00Z,26.2168,-96.4998,2.0,329.4061209,25.52295046,-99999.0,'11111222,11111222,99999999' 
TABS,ioos:station:wmo:42045:1,2007-09-04T15:30:00Z,26.2168,-96.4998,2.0,332.200322,24.48615936,-99999.0,'11111222,11111222,99999999' 
TABS,ioos:station:wmo:42045:1,2007-09-04T16:00:00Z,26.2168,-96.4998,2.0,334.9601456,22.35070692,-99999.0,'11111222,11111222,99999999' 